Year,Month,Day,Hour,Minute,Value (Times are PST for temperature in C)
2009,05,28,00,00,10.40
2009,05,28,00,01,10.40
2009,05,28,00,02,10.40
2009,05,28,00,03,10.40
2009,05,28,00,04,10.40
2009,05,28,00,05,10.40
2009,05,28,00,06,10.40
2009,05,28,00,07,10.40
2009,05,28,00,08,10.40
2009,05,28,00,09,10.40
2009,05,28,00,10,10.40
2009,05,28,00,11,10.40
2009,05,28,00,12,10.40
2009,05,28,00,13,10.30
2009,05,28,00,14,10.30
2009,05,28,00,15,10.30
2009,05,28,00,16,10.30
2009,05,28,00,17,10.30
2009,05,28,00,18,10.30
2009,05,28,00,19,10.30
2009,05,28,00,20,10.30
2009,05,28,00,21,10.30
2009,05,28,00,22,10.30
2009,05,28,00,23,10.30
2009,05,28,00,24,10.20
2009,05,28,00,25,10.20
2009,05,28,00,26,10.20
2009,05,28,00,27,10.20
2009,05,28,00,28,10.20
2009,05,28,00,29,10.20
2009,05,28,00,30,10.20
2009,05,28,00,31,10.10
2009,05,28,00,32,10.10
2009,05,28,00,33,10.10
2009,05,28,00,34,10.10
2009,05,28,00,35,10.10
2009,05,28,00,36,10.10
2009,05,28,00,37,10.10
2009,05,28,00,38,10.10
2009,05,28,00,39,10.00
2009,05,28,00,40,9.90
2009,05,28,00,41,9.90
2009,05,28,00,42,9.90
2009,05,28,00,43,9.90
2009,05,28,00,44,9.90
2009,05,28,00,45,9.90
2009,05,28,00,46,9.90
2009,05,28,00,47,9.80
2009,05,28,00,48,9.80
2009,05,28,00,49,9.80
2009,05,28,00,50,9.80
2009,05,28,00,51,9.80
2009,05,28,00,52,9.80
2009,05,28,00,53,9.80
2009,05,28,00,54,9.80
2009,05,28,00,55,9.80
2009,05,28,00,56,9.90
2009,05,28,00,57,9.90
2009,05,28,00,58,9.90
2009,05,28,00,59,9.90
2009,05,28,01,00,9.90
2009,05,28,01,01,9.90
2009,05,28,01,02,9.90
2009,05,28,01,03,9.90
2009,05,28,01,04,9.90
2009,05,28,01,05,9.90
2009,05,28,01,06,9.90
2009,05,28,01,07,9.80
2009,05,28,01,08,9.80
2009,05,28,01,09,9.70
2009,05,28,01,10,9.70
2009,05,28,01,11,9.70
2009,05,28,01,12,9.70
2009,05,28,01,13,9.70
2009,05,28,01,14,9.60
2009,05,28,01,15,9.60
2009,05,28,01,16,9.60
2009,05,28,01,17,9.60
2009,05,28,01,18,9.60
2009,05,28,01,19,9.60
2009,05,28,01,20,9.60
2009,05,28,01,21,9.60
2009,05,28,01,22,9.60
2009,05,28,01,23,9.60
2009,05,28,01,24,9.60
2009,05,28,01,25,9.60
2009,05,28,01,26,9.60
2009,05,28,01,27,9.60
2009,05,28,01,28,9.60
2009,05,28,01,29,9.50
2009,05,28,01,30,9.50
2009,05,28,01,31,9.50
2009,05,28,01,32,9.50
2009,05,28,01,33,9.50
2009,05,28,01,34,9.40
2009,05,28,01,35,9.40
2009,05,28,01,36,9.40
2009,05,28,01,37,9.40
2009,05,28,01,38,9.40
2009,05,28,01,39,9.40
2009,05,28,01,40,9.40
2009,05,28,01,41,9.40
2009,05,28,01,42,9.40
2009,05,28,01,43,9.40
2009,05,28,01,44,9.30
2009,05,28,01,45,9.30
2009,05,28,01,46,9.30
2009,05,28,01,47,9.30
2009,05,28,01,48,9.30
2009,05,28,01,49,9.30
2009,05,28,01,50,9.30
2009,05,28,01,51,9.30
2009,05,28,01,52,9.30
2009,05,28,01,53,9.30
2009,05,28,01,54,9.30
2009,05,28,01,55,9.30
2009,05,28,01,56,9.30
2009,05,28,01,57,9.30
2009,05,28,01,58,9.20
2009,05,28,01,59,9.20
2009,05,28,02,00,9.20
2009,05,28,02,01,9.20
2009,05,28,02,02,9.20
2009,05,28,02,03,9.20
2009,05,28,02,04,9.20
2009,05,28,02,05,9.20
2009,05,28,02,06,9.20
2009,05,28,02,07,9.20
2009,05,28,02,08,9.20
2009,05,28,02,09,9.20
2009,05,28,02,10,9.20
2009,05,28,02,11,9.20
2009,05,28,02,12,9.10
2009,05,28,02,13,9.10
2009,05,28,02,14,9.10
2009,05,28,02,15,9.10
2009,05,28,02,16,9.10
2009,05,28,02,17,9.10
2009,05,28,02,18,9.00
2009,05,28,02,19,9.00
2009,05,28,02,20,9.00
2009,05,28,02,21,9.00
2009,05,28,02,22,9.00
2009,05,28,02,23,9.00
2009,05,28,02,24,9.00
2009,05,28,02,25,9.00
2009,05,28,02,26,8.90
2009,05,28,02,27,8.90
2009,05,28,02,28,8.90
2009,05,28,02,29,8.90
2009,05,28,02,30,8.90
2009,05,28,02,31,8.90
2009,05,28,02,32,8.90
2009,05,28,02,33,8.90
2009,05,28,02,34,8.90
2009,05,28,02,35,8.80
2009,05,28,02,36,8.80
2009,05,28,02,37,8.80
2009,05,28,02,38,8.80
2009,05,28,02,39,8.80
2009,05,28,02,40,8.80
2009,05,28,02,41,8.80
2009,05,28,02,42,8.80
2009,05,28,02,43,8.80
2009,05,28,02,44,8.80
2009,05,28,02,45,8.80
2009,05,28,02,46,8.90
2009,05,28,02,47,8.90
2009,05,28,02,48,8.90
2009,05,28,02,49,8.90
2009,05,28,02,50,8.90
2009,05,28,02,51,8.90
2009,05,28,02,52,8.90
2009,05,28,02,53,8.90
2009,05,28,02,54,8.90
2009,05,28,02,55,8.90
2009,05,28,02,56,8.90
2009,05,28,02,57,8.80
2009,05,28,02,58,8.80
2009,05,28,02,59,8.80
2009,05,28,03,00,8.80
2009,05,28,03,01,8.80
2009,05,28,03,02,8.80
2009,05,28,03,03,8.80
2009,05,28,03,04,8.80
2009,05,28,03,05,8.80
2009,05,28,03,06,8.80
2009,05,28,03,07,8.80
2009,05,28,03,08,8.80
2009,05,28,03,09,8.80
2009,05,28,03,10,8.80
2009,05,28,03,11,8.80
2009,05,28,03,12,8.80
2009,05,28,03,13,8.80
2009,05,28,03,14,8.70
2009,05,28,03,15,8.70
2009,05,28,03,16,8.70
2009,05,28,03,17,8.70
2009,05,28,03,18,8.70
2009,05,28,03,19,8.70
2009,05,28,03,20,8.70
2009,05,28,03,21,8.70
2009,05,28,03,22,8.70
2009,05,28,03,23,8.70
2009,05,28,03,24,8.70
2009,05,28,03,25,8.70
2009,05,28,03,26,8.70
2009,05,28,03,27,8.70
2009,05,28,03,28,8.70
2009,05,28,03,29,8.70
2009,05,28,03,30,8.70
2009,05,28,03,31,8.70
2009,05,28,03,32,8.70
2009,05,28,03,33,8.70
2009,05,28,03,34,8.70
2009,05,28,03,35,8.70
2009,05,28,03,36,8.70
2009,05,28,03,37,8.70
2009,05,28,03,38,8.70
2009,05,28,03,39,8.70
2009,05,28,03,40,8.70
2009,05,28,03,41,8.70
2009,05,28,03,42,8.70
2009,05,28,03,43,8.70
2009,05,28,03,44,8.70
2009,05,28,03,45,8.70
2009,05,28,03,46,8.70
2009,05,28,03,47,8.60
2009,05,28,03,48,8.50
2009,05,28,03,49,8.40
2009,05,28,03,50,8.30
2009,05,28,03,51,8.30
2009,05,28,03,52,8.20
2009,05,28,03,53,8.20
2009,05,28,03,54,8.20
2009,05,28,03,55,8.20
2009,05,28,03,56,8.20
2009,05,28,03,57,8.20
2009,05,28,03,58,8.20
2009,05,28,03,59,8.20
2009,05,28,04,00,8.20
2009,05,28,04,01,8.20
2009,05,28,04,02,8.20
2009,05,28,04,03,8.20
2009,05,28,04,04,8.20
2009,05,28,04,05,8.20
2009,05,28,04,06,8.20
2009,05,28,04,07,8.20
2009,05,28,04,08,8.20
2009,05,28,04,09,8.20
2009,05,28,04,10,8.20
2009,05,28,04,11,8.20
2009,05,28,04,12,8.20
2009,05,28,04,13,8.20
2009,05,28,04,14,8.30
2009,05,28,04,15,8.30
2009,05,28,04,16,8.30
2009,05,28,04,17,8.30
2009,05,28,04,18,8.30
2009,05,28,04,19,8.30
2009,05,28,04,20,8.30
2009,05,28,04,21,8.30
2009,05,28,04,22,8.30
2009,05,28,04,23,8.20
2009,05,28,04,24,8.20
2009,05,28,04,25,8.20
2009,05,28,04,26,8.20
2009,05,28,04,27,8.20
2009,05,28,04,28,8.20
2009,05,28,04,29,8.20
2009,05,28,04,30,8.20
2009,05,28,04,31,8.20
2009,05,28,04,32,8.20
2009,05,28,04,33,8.20
2009,05,28,04,34,8.20
2009,05,28,04,35,8.20
2009,05,28,04,36,8.20
2009,05,28,04,37,8.20
2009,05,28,04,38,8.20
2009,05,28,04,39,8.20
2009,05,28,04,40,8.20
2009,05,28,04,41,8.20
2009,05,28,04,42,8.20
2009,05,28,04,43,8.20
2009,05,28,04,44,8.20
2009,05,28,04,45,8.20
2009,05,28,04,46,8.20
2009,05,28,04,47,8.20
2009,05,28,04,48,8.10
2009,05,28,04,49,8.10
2009,05,28,04,50,8.10
2009,05,28,04,51,8.10
2009,05,28,04,52,8.10
2009,05,28,04,53,8.00
2009,05,28,04,54,8.00
2009,05,28,04,55,8.00
2009,05,28,04,56,8.00
2009,05,28,04,57,7.90
2009,05,28,04,58,7.90
2009,05,28,04,59,7.90
2009,05,28,05,00,7.90
2009,05,28,05,01,7.90
2009,05,28,05,02,7.90
2009,05,28,05,03,8.00
2009,05,28,05,04,8.00
2009,05,28,05,05,8.00
2009,05,28,05,06,8.00
2009,05,28,05,07,8.00
2009,05,28,05,08,8.00
2009,05,28,05,09,7.90
2009,05,28,05,10,7.90
2009,05,28,05,11,7.90
2009,05,28,05,12,7.90
2009,05,28,05,13,7.90
2009,05,28,05,14,7.90
2009,05,28,05,15,7.90
2009,05,28,05,16,7.90
2009,05,28,05,17,7.90
2009,05,28,05,18,7.90
2009,05,28,05,19,7.80
2009,05,28,05,20,7.80
2009,05,28,05,21,7.80
2009,05,28,05,22,7.80
2009,05,28,05,23,7.80
2009,05,28,05,24,7.80
2009,05,28,05,25,7.80
2009,05,28,05,26,7.80
2009,05,28,05,27,7.80
2009,05,28,05,28,7.80
2009,05,28,05,29,7.80
2009,05,28,05,30,7.80
2009,05,28,05,31,7.80
2009,05,28,05,32,7.80
2009,05,28,05,33,7.80
2009,05,28,05,34,7.80
2009,05,28,05,35,7.80
2009,05,28,05,36,7.80
2009,05,28,05,37,7.80
2009,05,28,05,38,7.80
2009,05,28,05,39,7.80
2009,05,28,05,40,7.80
2009,05,28,05,41,7.80
2009,05,28,05,42,7.80
2009,05,28,05,43,7.80
2009,05,28,05,44,7.80
2009,05,28,05,45,7.80
2009,05,28,05,46,7.70
2009,05,28,05,47,7.70
2009,05,28,05,48,7.70
2009,05,28,05,49,7.70
2009,05,28,05,50,7.70
2009,05,28,05,51,7.70
2009,05,28,05,52,7.70
2009,05,28,05,53,7.70
2009,05,28,05,54,7.70
2009,05,28,05,55,7.70
2009,05,28,05,56,7.70
2009,05,28,05,57,7.70
2009,05,28,05,58,7.70
2009,05,28,05,59,7.70
2009,05,28,06,00,7.70
2009,05,28,06,01,7.70
2009,05,28,06,02,7.70
2009,05,28,06,03,7.70
2009,05,28,06,04,7.70
2009,05,28,06,05,7.70
2009,05,28,06,06,7.70
2009,05,28,06,07,7.70
2009,05,28,06,08,7.70
2009,05,28,06,09,7.70
2009,05,28,06,10,7.60
2009,05,28,06,11,7.60
2009,05,28,06,12,7.60
2009,05,28,06,13,7.60
2009,05,28,06,14,7.60
2009,05,28,06,15,7.70
2009,05,28,06,16,7.70
2009,05,28,06,17,7.80
2009,05,28,06,18,7.80
2009,05,28,06,19,7.80
2009,05,28,06,20,7.80
2009,05,28,06,21,7.90
2009,05,28,06,22,7.90
2009,05,28,06,23,8.00
2009,05,28,06,24,8.00
2009,05,28,06,25,8.10
2009,05,28,06,26,8.10
2009,05,28,06,27,8.20
2009,05,28,06,28,8.20
2009,05,28,06,29,8.30
2009,05,28,06,30,8.40
2009,05,28,06,31,8.40
2009,05,28,06,32,8.50
2009,05,28,06,33,8.60
2009,05,28,06,34,8.70
2009,05,28,06,35,8.80
2009,05,28,06,36,8.90
2009,05,28,06,37,8.90
2009,05,28,06,38,9.00
2009,05,28,06,39,9.10
2009,05,28,06,40,9.10
2009,05,28,06,41,9.10
2009,05,28,06,42,9.10
2009,05,28,06,43,9.10
2009,05,28,06,44,9.00
2009,05,28,06,45,9.00
2009,05,28,06,46,9.00
2009,05,28,06,47,9.00
2009,05,28,06,48,9.00
2009,05,28,06,49,9.00
2009,05,28,06,50,9.00
2009,05,28,06,51,9.00
2009,05,28,06,52,9.00
2009,05,28,06,53,9.10
2009,05,28,06,54,9.10
2009,05,28,06,55,9.20
2009,05,28,06,56,9.20
2009,05,28,06,57,9.20
2009,05,28,06,58,9.20
2009,05,28,06,59,9.30
2009,05,28,07,00,9.30
2009,05,28,07,01,9.40
2009,05,28,07,02,9.40
2009,05,28,07,03,9.50
2009,05,28,07,04,9.50
2009,05,28,07,05,9.60
2009,05,28,07,06,9.70
2009,05,28,07,07,9.70
2009,05,28,07,08,9.70
2009,05,28,07,09,9.80
2009,05,28,07,10,9.90
2009,05,28,07,11,10.00
2009,05,28,07,12,10.10
2009,05,28,07,13,10.20
2009,05,28,07,14,10.40
2009,05,28,07,15,10.50
2009,05,28,07,16,10.60
2009,05,28,07,17,10.60
2009,05,28,07,18,10.60
2009,05,28,07,19,10.70
2009,05,28,07,20,10.70
2009,05,28,07,21,10.80
2009,05,28,07,22,10.80
2009,05,28,07,23,10.90
2009,05,28,07,24,10.90
2009,05,28,07,25,10.90
2009,05,28,07,26,10.90
2009,05,28,07,27,10.90
2009,05,28,07,28,11.00
2009,05,28,07,29,11.10
2009,05,28,07,30,11.10
2009,05,28,07,31,11.10
2009,05,28,07,32,11.20
2009,05,28,07,33,11.20
2009,05,28,07,34,11.40
2009,05,28,07,35,11.50
2009,05,28,07,36,11.60
2009,05,28,07,37,11.70
2009,05,28,07,38,11.80
2009,05,28,07,39,11.90
2009,05,28,07,40,12.00
2009,05,28,07,41,12.10
2009,05,28,07,42,12.20
2009,05,28,07,43,12.30
2009,05,28,07,44,12.40
2009,05,28,07,45,12.40
2009,05,28,07,46,12.40
2009,05,28,07,47,12.40
2009,05,28,07,48,12.30
2009,05,28,07,49,12.30
2009,05,28,07,50,12.30
2009,05,28,07,51,12.20
2009,05,28,07,52,12.10
2009,05,28,07,53,12.00
2009,05,28,07,54,11.90
2009,05,28,07,55,11.80
2009,05,28,07,56,11.70
2009,05,28,07,57,11.60
2009,05,28,07,58,11.60
2009,05,28,07,59,11.40
2009,05,28,08,00,11.40
2009,05,28,08,01,11.40
2009,05,28,08,02,11.40
2009,05,28,08,03,11.40
2009,05,28,08,04,11.40
2009,05,28,08,05,11.30
2009,05,28,08,06,11.30
2009,05,28,08,07,11.30
2009,05,28,08,08,11.30
2009,05,28,08,09,11.30
2009,05,28,08,10,11.40
2009,05,28,08,11,11.50
2009,05,28,08,12,11.60
2009,05,28,08,13,11.70
2009,05,28,08,14,11.80
2009,05,28,08,15,11.80
2009,05,28,08,16,12.00
2009,05,28,08,17,12.10
2009,05,28,08,18,12.30
2009,05,28,08,19,12.40
2009,05,28,08,20,12.50
2009,05,28,08,21,12.70
2009,05,28,08,22,12.90
2009,05,28,08,23,13.10
2009,05,28,08,24,13.30
2009,05,28,08,25,13.40
2009,05,28,08,26,13.50
2009,05,28,08,27,13.60
2009,05,28,08,28,13.70
2009,05,28,08,29,13.70
2009,05,28,08,30,13.70
2009,05,28,08,31,13.70
2009,05,28,08,32,13.70
2009,05,28,08,33,13.70
2009,05,28,08,34,13.70
2009,05,28,08,35,13.70
2009,05,28,08,36,13.70
2009,05,28,08,37,13.80
2009,05,28,08,38,13.80
2009,05,28,08,39,13.90
2009,05,28,08,40,13.90
2009,05,28,08,41,13.90
2009,05,28,08,42,13.90
2009,05,28,08,43,14.00
2009,05,28,08,44,14.00
2009,05,28,08,45,14.10
2009,05,28,08,46,14.20
2009,05,28,08,47,14.20
2009,05,28,08,48,14.20
2009,05,28,08,49,14.20
2009,05,28,08,50,14.20
2009,05,28,08,51,14.20
2009,05,28,08,52,14.20
2009,05,28,08,53,14.20
2009,05,28,08,54,14.20
2009,05,28,08,55,14.30
2009,05,28,08,56,14.40
2009,05,28,08,57,14.40
2009,05,28,08,58,14.50
2009,05,28,08,59,14.50
2009,05,28,09,00,14.50
2009,05,28,09,01,14.60
2009,05,28,09,02,14.60
2009,05,28,09,03,14.60
2009,05,28,09,04,14.70
2009,05,28,09,05,14.80
2009,05,28,09,06,14.90
2009,05,28,09,07,15.00
2009,05,28,09,08,15.00
2009,05,28,09,09,15.10
2009,05,28,09,10,15.20
2009,05,28,09,11,15.20
2009,05,28,09,12,15.30
2009,05,28,09,13,15.30
2009,05,28,09,14,15.50
2009,05,28,09,15,15.50
2009,05,28,09,16,15.50
2009,05,28,09,17,15.50
2009,05,28,09,18,15.40
2009,05,28,09,19,15.40
2009,05,28,09,20,15.40
2009,05,28,09,21,15.40
2009,05,28,09,22,15.40
2009,05,28,09,23,15.40
2009,05,28,09,24,15.40
2009,05,28,09,25,15.50
2009,05,28,09,26,15.50
2009,05,28,09,27,15.20
2009,05,28,09,28,15.00
2009,05,28,09,29,14.80
2009,05,28,09,30,14.50
2009,05,28,09,31,14.20
2009,05,28,09,32,14.00
2009,05,28,09,33,13.90
2009,05,28,09,34,13.90
2009,05,28,09,35,13.90
2009,05,28,09,36,13.90
2009,05,28,09,37,13.80
2009,05,28,09,38,13.70
2009,05,28,09,39,13.60
2009,05,28,09,40,13.50
2009,05,28,09,41,13.40
2009,05,28,09,42,13.30
2009,05,28,09,43,13.30
2009,05,28,09,44,13.20
2009,05,28,09,45,13.10
2009,05,28,09,46,13.00
2009,05,28,09,47,12.90
2009,05,28,09,48,12.90
2009,05,28,09,49,12.90
2009,05,28,09,50,12.80
2009,05,28,09,51,12.90
2009,05,28,09,52,12.90
2009,05,28,09,53,12.90
2009,05,28,09,54,12.90
2009,05,28,09,55,12.80
2009,05,28,09,56,12.80
2009,05,28,09,57,12.80
2009,05,28,09,58,12.80
2009,05,28,09,59,12.90
2009,05,28,10,00,12.90
2009,05,28,10,01,13.00
2009,05,28,10,02,13.10
2009,05,28,10,03,13.20
2009,05,28,10,04,13.20
2009,05,28,10,05,13.20
2009,05,28,10,06,13.20
2009,05,28,10,07,13.20
2009,05,28,10,08,13.10
2009,05,28,10,09,13.20
2009,05,28,10,10,13.20
2009,05,28,10,11,13.20
2009,05,28,10,12,13.10
2009,05,28,10,13,13.20
2009,05,28,10,14,13.20
2009,05,28,10,15,13.10
2009,05,28,10,16,13.10
2009,05,28,10,17,13.20
2009,05,28,10,18,13.30
2009,05,28,10,19,13.30
2009,05,28,10,20,13.30
2009,05,28,10,21,13.30
2009,05,28,10,22,13.30
2009,05,28,10,23,13.30
2009,05,28,10,24,13.30
2009,05,28,10,25,13.30
2009,05,28,10,26,13.30
2009,05,28,10,27,13.40
2009,05,28,10,28,13.50
2009,05,28,10,29,13.50
2009,05,28,10,30,13.50
2009,05,28,10,31,13.60
2009,05,28,10,32,13.70
2009,05,28,10,33,13.90
2009,05,28,10,34,14.00
2009,05,28,10,35,14.10
2009,05,28,10,36,14.20
2009,05,28,10,37,14.20
2009,05,28,10,38,14.30
2009,05,28,10,39,14.40
2009,05,28,10,40,14.40
2009,05,28,10,41,14.40
2009,05,28,10,42,14.40
2009,05,28,10,43,14.40
2009,05,28,10,44,14.40
2009,05,28,10,45,14.30
2009,05,28,10,46,14.30
2009,05,28,10,47,14.30
2009,05,28,10,48,14.40
2009,05,28,10,49,14.50
2009,05,28,10,50,14.60
2009,05,28,10,51,14.60
2009,05,28,10,52,14.80
2009,05,28,10,53,14.80
2009,05,28,10,54,14.80
2009,05,28,10,55,14.80
2009,05,28,10,56,14.70
2009,05,28,10,57,14.70
2009,05,28,10,58,14.80
2009,05,28,10,59,14.90
2009,05,28,11,00,14.90
2009,05,28,11,01,14.90
2009,05,28,11,02,15.00
2009,05,28,11,03,15.10
2009,05,28,11,04,15.20
2009,05,28,11,05,15.30
2009,05,28,11,06,15.30
2009,05,28,11,07,15.20
2009,05,28,11,08,15.20
2009,05,28,11,09,15.20
2009,05,28,11,10,15.20
2009,05,28,11,11,15.00
2009,05,28,11,12,14.90
2009,05,28,11,13,14.80
2009,05,28,11,14,14.80
2009,05,28,11,15,14.80
2009,05,28,11,16,14.70
2009,05,28,11,17,14.70
2009,05,28,11,18,14.60
2009,05,28,11,19,14.70
2009,05,28,11,20,14.60
2009,05,28,11,21,14.40
2009,05,28,11,22,14.40
2009,05,28,11,23,14.30
2009,05,28,11,24,14.30
2009,05,28,11,25,14.40
2009,05,28,11,26,14.50
2009,05,28,11,27,14.60
2009,05,28,11,28,14.70
2009,05,28,11,29,14.90
2009,05,28,11,30,15.10
2009,05,28,11,31,15.40
2009,05,28,11,32,15.50
2009,05,28,11,33,15.50
2009,05,28,11,34,15.50
2009,05,28,11,35,15.50
2009,05,28,11,36,15.60
2009,05,28,11,37,15.70
2009,05,28,11,38,15.80
2009,05,28,11,39,15.80
2009,05,28,11,40,15.80
2009,05,28,11,41,15.90
2009,05,28,11,42,15.90
2009,05,28,11,43,15.90
2009,05,28,11,44,16.00
2009,05,28,11,45,16.20
2009,05,28,11,46,16.20
2009,05,28,11,47,16.20
2009,05,28,11,48,16.20
2009,05,28,11,49,16.20
2009,05,28,11,50,16.20
2009,05,28,11,51,16.20
2009,05,28,11,52,16.20
2009,05,28,11,53,16.20
2009,05,28,11,54,16.30
2009,05,28,11,55,16.40
2009,05,28,11,56,16.40
2009,05,28,11,57,16.40
2009,05,28,11,58,16.40
2009,05,28,11,59,16.40
2009,05,28,12,00,16.50
2009,05,28,12,01,16.60
2009,05,28,12,02,16.70
2009,05,28,12,03,16.70
2009,05,28,12,04,16.70
2009,05,28,12,05,16.70
2009,05,28,12,06,16.70
2009,05,28,12,07,16.70
2009,05,28,12,08,16.80
2009,05,28,12,09,16.90
2009,05,28,12,10,17.00
2009,05,28,12,11,17.10
2009,05,28,12,12,17.00
2009,05,28,12,13,16.90
2009,05,28,12,14,16.90
2009,05,28,12,15,17.00
2009,05,28,12,16,17.00
2009,05,28,12,17,17.10
2009,05,28,12,18,17.20
2009,05,28,12,19,17.30
2009,05,28,12,20,17.30
2009,05,28,12,21,17.30
2009,05,28,12,22,17.30
2009,05,28,12,23,17.30
2009,05,28,12,24,17.40
2009,05,28,12,25,17.50
2009,05,28,12,26,17.50
2009,05,28,12,27,17.60
2009,05,28,12,28,17.60
2009,05,28,12,29,17.70
2009,05,28,12,30,17.80
2009,05,28,12,31,17.90
2009,05,28,12,32,17.90
2009,05,28,12,33,17.90
2009,05,28,12,34,17.80
2009,05,28,12,35,17.60
2009,05,28,12,36,17.60
2009,05,28,12,37,17.60
2009,05,28,12,38,17.60
2009,05,28,12,39,17.70
2009,05,28,12,40,17.80
2009,05,28,12,41,17.90
2009,05,28,12,42,17.90
2009,05,28,12,43,17.90
2009,05,28,12,44,17.70
2009,05,28,12,45,17.50
2009,05,28,12,46,17.50
2009,05,28,12,47,17.50
2009,05,28,12,48,17.50
2009,05,28,12,49,17.50
2009,05,28,12,50,17.50
2009,05,28,12,51,17.50
2009,05,28,12,52,17.50
2009,05,28,12,53,17.60
2009,05,28,12,54,17.70
2009,05,28,12,55,17.70
2009,05,28,12,56,17.60
2009,05,28,12,57,17.50
2009,05,28,12,58,17.40
2009,05,28,12,59,17.30
2009,05,28,13,00,17.40
2009,05,28,13,01,17.70
2009,05,28,13,02,17.70
2009,05,28,13,03,17.90
2009,05,28,13,04,18.00
2009,05,28,13,05,18.10
2009,05,28,13,06,18.00
2009,05,28,13,07,18.10
2009,05,28,13,08,18.10
2009,05,28,13,09,18.10
2009,05,28,13,10,18.20
2009,05,28,13,11,18.10
2009,05,28,13,12,18.10
2009,05,28,13,13,18.20
2009,05,28,13,14,18.20
2009,05,28,13,15,18.20
2009,05,28,13,16,18.20
2009,05,28,13,17,18.20
2009,05,28,13,18,18.10
2009,05,28,13,19,18.10
2009,05,28,13,20,18.10
2009,05,28,13,21,18.00
2009,05,28,13,22,18.00
2009,05,28,13,23,18.10
2009,05,28,13,24,18.30
2009,05,28,13,25,18.30
2009,05,28,13,26,18.40
2009,05,28,13,27,18.50
2009,05,28,13,28,18.50
2009,05,28,13,29,18.60
2009,05,28,13,30,18.70
2009,05,28,13,31,18.70
2009,05,28,13,32,18.70
2009,05,28,13,33,18.70
2009,05,28,13,34,18.80
2009,05,28,13,35,18.80
2009,05,28,13,36,18.90
2009,05,28,13,37,19.10
2009,05,28,13,38,19.20
2009,05,28,13,39,19.00
2009,05,28,13,40,18.70
2009,05,28,13,41,18.40
2009,05,28,13,42,18.50
2009,05,28,13,43,18.60
2009,05,28,13,44,18.60
2009,05,28,13,45,18.60
2009,05,28,13,46,18.70
2009,05,28,13,47,18.70
2009,05,28,13,48,18.60
2009,05,28,13,49,18.60
2009,05,28,13,50,18.60
2009,05,28,13,51,18.80
2009,05,28,13,52,18.90
2009,05,28,13,53,18.90
2009,05,28,13,54,18.70
2009,05,28,13,55,18.60
2009,05,28,13,56,18.70
2009,05,28,13,57,18.80
2009,05,28,13,58,18.90
2009,05,28,13,59,18.90
2009,05,28,14,00,19.00
2009,05,28,14,01,19.10
2009,05,28,14,02,19.20
2009,05,28,14,03,19.20
2009,05,28,14,04,19.30
2009,05,28,14,05,19.40
2009,05,28,14,06,19.50
2009,05,28,14,07,19.60
2009,05,28,14,08,19.60
2009,05,28,14,09,19.50
2009,05,28,14,10,19.50
2009,05,28,14,11,19.60
2009,05,28,14,12,19.60
2009,05,28,14,13,19.50
2009,05,28,14,14,19.30
2009,05,28,14,15,19.10
2009,05,28,14,16,19.00
2009,05,28,14,17,19.00
2009,05,28,14,18,18.90
2009,05,28,14,19,19.10
2009,05,28,14,20,19.10
2009,05,28,14,21,19.10
2009,05,28,14,22,19.30
2009,05,28,14,23,19.50
2009,05,28,14,24,19.60
2009,05,28,14,25,19.50
2009,05,28,14,26,19.40
2009,05,28,14,27,19.40
2009,05,28,14,28,19.30
2009,05,28,14,29,19.20
2009,05,28,14,30,19.10
2009,05,28,14,31,19.00
2009,05,28,14,32,18.80
2009,05,28,14,33,18.80
2009,05,28,14,34,18.80
2009,05,28,14,35,18.70
2009,05,28,14,36,18.60
2009,05,28,14,37,18.60
2009,05,28,14,38,18.50
2009,05,28,14,39,18.50
2009,05,28,14,40,18.40
2009,05,28,14,41,18.50
2009,05,28,14,42,18.50
2009,05,28,14,43,18.50
2009,05,28,14,44,18.60
2009,05,28,14,45,18.70
2009,05,28,14,46,18.60
2009,05,28,14,47,18.60
2009,05,28,14,48,18.70
2009,05,28,14,49,18.70
2009,05,28,14,50,18.80
2009,05,28,14,51,18.80
2009,05,28,14,52,18.70
2009,05,28,14,53,18.70
2009,05,28,14,54,18.70
2009,05,28,14,55,18.70
2009,05,28,14,56,18.70
2009,05,28,14,57,18.60
2009,05,28,14,58,18.60
2009,05,28,14,59,18.50
2009,05,28,15,00,18.60
2009,05,28,15,01,18.60
2009,05,28,15,02,18.60
2009,05,28,15,03,18.60
2009,05,28,15,04,18.60
2009,05,28,15,05,18.60
2009,05,28,15,06,18.60
2009,05,28,15,07,18.50
2009,05,28,15,08,18.50
2009,05,28,15,09,18.50
2009,05,28,15,10,18.50
2009,05,28,15,11,18.40
2009,05,28,15,12,18.30
2009,05,28,15,13,18.20
2009,05,28,15,14,18.10
2009,05,28,15,15,17.90
2009,05,28,15,16,17.90
2009,05,28,15,17,17.90
2009,05,28,15,18,17.80
2009,05,28,15,19,17.70
2009,05,28,15,20,17.70
2009,05,28,15,21,17.70
2009,05,28,15,22,17.70
2009,05,28,15,23,17.80
2009,05,28,15,24,17.80
2009,05,28,15,25,17.70
2009,05,28,15,26,17.50
2009,05,28,15,27,17.50
2009,05,28,15,28,17.60
2009,05,28,15,29,17.60
2009,05,28,15,30,17.70
2009,05,28,15,31,17.80
2009,05,28,15,32,17.80
2009,05,28,15,33,17.80
2009,05,28,15,34,17.80
2009,05,28,15,35,17.80
2009,05,28,15,36,17.80
2009,05,28,15,37,17.80
2009,05,28,15,38,17.80
2009,05,28,15,39,17.90
2009,05,28,15,40,18.00
2009,05,28,15,41,18.10
2009,05,28,15,42,18.10
2009,05,28,15,43,18.20
2009,05,28,15,44,18.20
2009,05,28,15,45,18.20
2009,05,28,15,46,18.20
2009,05,28,15,47,18.10
2009,05,28,15,48,18.00
2009,05,28,15,49,17.90
2009,05,28,15,50,17.90
2009,05,28,15,51,17.70
2009,05,28,15,52,17.70
2009,05,28,15,53,17.70
2009,05,28,15,54,17.80
2009,05,28,15,55,17.70
2009,05,28,15,56,17.70
2009,05,28,15,57,17.70
2009,05,28,15,58,17.60
2009,05,28,15,59,17.60
2009,05,28,16,00,17.60
2009,05,28,16,01,17.60
2009,05,28,16,02,17.70
2009,05,28,16,03,17.80
2009,05,28,16,04,17.90
2009,05,28,16,05,18.10
2009,05,28,16,06,18.30
2009,05,28,16,07,18.40
2009,05,28,16,08,18.40
2009,05,28,16,09,18.50
2009,05,28,16,10,18.60
2009,05,28,16,11,18.70
2009,05,28,16,12,18.70
2009,05,28,16,13,18.60
2009,05,28,16,14,18.60
2009,05,28,16,15,18.70
2009,05,28,16,16,18.60
2009,05,28,16,17,18.50
2009,05,28,16,18,18.60
2009,05,28,16,19,18.80
2009,05,28,16,20,18.80
2009,05,28,16,21,18.90
2009,05,28,16,22,18.90
2009,05,28,16,23,19.00
2009,05,28,16,24,19.10
2009,05,28,16,25,18.90
2009,05,28,16,26,18.80
2009,05,28,16,27,18.70
2009,05,28,16,28,18.60
2009,05,28,16,29,18.50
2009,05,28,16,30,18.50
2009,05,28,16,31,18.50
2009,05,28,16,32,18.50
2009,05,28,16,33,18.60
2009,05,28,16,34,18.50
2009,05,28,16,35,18.50
2009,05,28,16,36,18.50
2009,05,28,16,37,18.60
2009,05,28,16,38,18.60
2009,05,28,16,39,18.80
2009,05,28,16,40,18.70
2009,05,28,16,41,18.70
2009,05,28,16,42,18.60
2009,05,28,16,43,18.40
2009,05,28,16,44,18.50
2009,05,28,16,45,18.50
2009,05,28,16,46,18.50
2009,05,28,16,47,18.50
2009,05,28,16,48,18.60
2009,05,28,16,49,18.70
2009,05,28,16,50,18.80
2009,05,28,16,51,18.90
2009,05,28,16,52,19.10
2009,05,28,16,53,19.10
2009,05,28,16,54,19.00
2009,05,28,16,55,18.90
2009,05,28,16,56,19.00
2009,05,28,16,57,19.00
2009,05,28,16,58,19.10
2009,05,28,16,59,19.10
2009,05,28,17,00,19.10
2009,05,28,17,01,19.10
2009,05,28,17,02,19.10
2009,05,28,17,03,19.10
2009,05,28,17,04,19.10
2009,05,28,17,05,19.10
2009,05,28,17,06,19.10
2009,05,28,17,07,19.10
2009,05,28,17,08,19.10
2009,05,28,17,09,19.30
2009,05,28,17,10,19.40
2009,05,28,17,11,19.50
2009,05,28,17,12,19.60
2009,05,28,17,13,19.60
2009,05,28,17,14,19.60
2009,05,28,17,15,19.50
2009,05,28,17,16,19.50
2009,05,28,17,17,19.50
2009,05,28,17,18,19.50
2009,05,28,17,19,19.60
2009,05,28,17,20,19.60
2009,05,28,17,21,19.60
2009,05,28,17,22,19.60
2009,05,28,17,23,19.80
2009,05,28,17,24,19.80
2009,05,28,17,25,19.80
2009,05,28,17,26,19.80
2009,05,28,17,27,19.80
2009,05,28,17,28,19.80
2009,05,28,17,29,19.70
2009,05,28,17,30,19.70
2009,05,28,17,31,19.70
2009,05,28,17,32,19.60
2009,05,28,17,33,19.60
2009,05,28,17,34,19.60
2009,05,28,17,35,19.60
2009,05,28,17,36,19.50